EW0822 Weather Reports


time (UTC)temp
C
wind
direction
speed
KPH
gust
KPH
rain 1hr
cm
rain 24hr
cm
rain mn
cm
humidity
%
barometer
mb
20260906203032 19 29 0.0 0.0 0.00 0.00 0.00 60 1021.1
20260906201522 18 32 0.0 0.0 0.00 0.00 0.00 61 1021.3
20260906200028 19 33 0.0 0.0 0.00 0.00 0.00 62 1021.5
20260906194520 19 33 0.0 0.0 0.00 0.00 0.00 61 1021.5
20260906193020 19 33 0.0 0.0 0.00 0.00 0.00 60 1021.6
20260906191519 19 32 0.0 0.0 0.00 0.00 0.00 60 1021.5
20260906190016 20 32 0.0 0.0 0.00 0.00 0.00 58 1021.7
20260906184516 20 32 0.0 0.0 0.00 0.00 0.00 58 1021.8
20260906183038 20 32 0.0 0.0 0.00 0.00 0.00 57 1021.8
20260906181517 21 32 0.0 0.0 0.00 0.00 0.00 56 1021.8
20260906180019 21 32 0.0 0.0 0.00 0.00 0.00 55 1021.8
20260906174513 22 32 0.0 0.0 0.00 0.00 0.00 54 1022.0
20260906173013 22 32 0.0 0.0 0.00 0.00 0.00 55 1022.0
20260906171517 22 32 0.0 0.0 0.00 0.00 0.00 54 1022.2
20260906170011 22 32 0.0 0.0 0.00 0.00 0.00 53 1022.2
20260906164508 23 32 0.0 0.0 0.00 0.00 0.00 51 1022.4
20260906163011 23 23 0.0 0.0 0.00 0.00 0.00 50 1022.4
20260906161505 22 17 0.0 0.0 0.00 0.00 0.00 50 1022.5
20260906160004 22 15 0.0 0.0 0.00 0.00 0.00 49 1022.7
20260906154503 22 49 0.0 0.0 0.00 0.00 0.00 48 1022.7
20260906153002 23 15 0.0 0.0 0.00 0.00 0.00 47 1022.8
20260906151600 23 47 0.0 0.0 0.00 0.00 0.00 46 1022.8
20260906144605 23 29 0.0 0.0 0.00 0.00 0.00 47 1023.1
20260906143056 22 41 0.0 0.0 0.00 0.00 0.00 47 1023.2
20260906141552 22 36 0.0 0.0 0.00 0.00 0.00 48 1023.4
20260906140050 22 32 0.0 0.0 0.00 0.00 0.00 48 1023.5
20260906134554 22 330 0.0 0.0 0.00 0.00 0.00 49 1023.6
20260906133047 22 340 0.0 0.0 0.00 0.00 0.00 50 1023.9
20260906131543 22 36 0.0 0.0 0.00 0.00 0.00 49 1024.2
20260906130044 21 28 0.0 0.0 0.00 0.00 0.00 49 1024.5
20260906124539 21 28 0.0 0.0 0.00 0.00 0.00 50 1024.5
20260906123041 21 56 0.0 0.0 0.00 0.00 0.00 51 1024.7
20260906121542 21 34 0.0 0.0 0.00 0.00 0.00 50 1024.9
20260906120032 21 30 0.0 0.0 0.00 0.00 0.00 52 1025.1
20260906114540 21 25 0.0 0.0 0.00 0.00 0.00 52 1025.2
20260906113043 21 32 0.0 0.0 0.00 0.00 0.00 53 1025.4
20260906111527 21 41 0.0 0.0 0.00 0.00 0.00 53 1025.4
20260906110023 20 18 0.0 0.0 0.00 0.00 0.00 58 1025.6
20260906104527 20 29 0.0 0.0 0.00 0.00 0.00 58 1025.6
20260906103018 20 36 0.0 0.0 0.00 0.00 0.00 59 1025.9
20260906101515 19 33 0.0 0.0 0.00 0.00 0.00 60 1026.2
20260906100017 19 355 0.0 0.0 0.00 0.00 0.00 61 1026.3
20260906094510 19 19 0.0 0.0 0.00 0.00 0.00 61 1026.6
20260906093008 18 101 0.0 0.0 0.00 0.00 0.00 62 1026.7
20260906091508 18 126 0.0 0.0 0.00 0.00 0.00 63 1026.9
20260906090108 18 184 0.0 0.0 0.00 0.00 0.00 66 1026.9
20260906084557 18 203 0.0 0.0 0.00 0.00 0.00 69 1026.9
20260906083054 17 204 0.0 0.0 0.00 0.00 0.00 71 1027.1
20260906081556 17 204 0.0 0.0 0.00 0.00 0.00 74 1027.1
20260906080046 16 204 0.0 0.0 0.00 0.00 0.00 77 1027.1
20260906074557 15 204 0.0 0.0 0.00 0.00 0.00 79 1027.1
20260906073036 15 204 0.0 0.0 0.00 0.00 0.00 80 1027.0
20260906071533 13 203 0.0 0.0 0.00 0.00 0.00 81 1026.9
20260906070027 12 201 0.0 0.0 0.00 0.00 0.00 80 1026.9
20260906064524 12 214 0.0 0.0 0.00 0.00 0.00 79 1026.9
20260906063018 11 214 0.0 0.0 0.00 0.00 0.00 78 1026.8
20260906061514 11 214 0.0 0.0 0.00 0.00 0.00 77 1026.7
20260906060016 10 214 0.0 0.0 0.00 0.00 0.00 78 1026.6
20260906054505 9 214 0.0 0.0 0.00 0.00 0.00 78 1026.8
20260906053006 9 214 0.0 0.0 0.00 0.00 0.00 78 1026.9
20260906051504 9 214 0.0 0.0 0.00 0.00 0.00 78 1027.1
20260906050006 9 214 0.0 0.0 0.00 0.00 0.00 78 1027.0
20260906044600 9 214 0.0 0.0 0.00 0.00 0.00 78 1027.0
20260906043100 9 214 0.0 0.0 0.00 0.00 0.00 78 1026.7
20260906041559 9 214 0.0 0.0 0.00 0.00 0.00 78 1026.7
20260906040059 9 214 0.0 0.0 0.00 0.00 0.00 78 1026.8
20260906034558 9 215 0.0 0.0 0.00 0.00 0.00 78 1026.9
20260906033058 9 215 0.0 0.0 0.00 0.00 0.00 78 1027.1
20260906031602 9 215 0.0 0.0 0.00 0.00 0.00 78 1027.0
20260906030055 9 215 0.0 0.0 0.00 0.00 0.00 78 1026.7
20260906024553 10 215 0.0 0.0 0.00 0.00 0.00 79 1026.8
20260906023052 10 215 0.0 0.0 0.00 0.00 0.00 79 1026.7
20260906021551 10 215 0.0 0.0 0.00 0.00 0.00 79 1026.6
20260906020057 10 215 0.0 0.0 0.00 0.00 0.00 79 1026.8
20260906014548 10 215 0.0 0.0 0.00 0.00 0.00 79 1026.7
20260906013046 10 215 0.0 0.0 0.00 0.00 0.00 79 1026.6
20260906011545 10 215 0.0 0.0 0.00 0.00 0.00 79 1026.4
20260906010044 10 215 0.0 0.0 0.00 0.00 0.00 79 1026.3
20260906004542 10 215 0.0 0.0 0.00 0.00 0.00 80 1026.5
20260906003042 11 215 0.0 0.0 0.00 0.00 0.00 79 1026.4
20260906001539 11 215 0.0 0.0 0.00 0.00 0.00 80 1026.4
20260906000039 11 215 0.0 0.0 0.00 0.00 0.00 80 1026.6
20260905234537 11 215 0.0 0.0 0.00 0.00 0.00 80 1026.5
20260905233042 11 215 0.0 0.0 0.00 0.00 0.00 80 1026.5
20260905231533 11 215 0.0 0.0 0.00 0.00 0.00 80 1026.6
20260905230031 12 215 0.0 0.0 0.00 0.00 0.00 80 1026.4
20260905224538 12 215 0.0 0.0 0.00 0.00 0.00 81 1026.3
20260905223026 12 215 0.0 0.0 0.00 0.00 0.00 81 1026.2
20260905221523 12 215 0.0 0.0 0.00 0.00 0.00 81 1026.0
20260905220021 13 215 0.0 0.0 0.00 0.00 0.00 81 1026.0
20260905214518 13 215 0.0 0.0 0.00 0.00 0.00 81 1025.8
20260905213017 13 215 0.0 0.0 0.00 0.00 0.00 81 1025.7
20260905211515 14 215 0.0 0.0 0.00 0.00 0.00 80 1025.6
20260905210014 15 215 0.0 0.0 0.00 0.00 0.00 78 1025.5
20260905204517 15 215 0.0 0.0 0.00 0.00 0.00 74 1025.4